• en France
  • Liste des pays
  • À 7 jours
  • Température de l'eau
  • Carte satellitaire
  • Carte météo
  • Widgets météo
  • user-avatar
    Se connecter

    Météo par heure à Vladimiro-Konstantinovka

    Ce jour, 21 Septembre, Vendredi

    Heure Température Précipitation Vent Pression Humidité
    00:00 +14°C° 0 mm 2 m/s 746 mmHg 89%
    01:00 +14°C° 0 mm 2 m/s 747 mmHg 90%
    02:00 +13°C° 0 mm 2 m/s 747 mmHg 91%
    03:00 +13°C° 0 mm 2 m/s 747 mmHg 92%
    04:00 +13°C° 0 mm 2 m/s 748 mmHg 92%
    05:00 +13°C° 0 mm 2 m/s 748 mmHg 92%
    06:00 +12°C° 0 mm 2 m/s 748 mmHg 92%
    07:00 +14°C° 0 mm 2 m/s 748 mmHg 86%
    08:00 +16°C° 0 mm 2 m/s 749 mmHg 79%
    09:00 +17°C° 0 mm 2 m/s 749 mmHg 72%
    10:00 +19°C° 0 mm 2 m/s 749 mmHg 67%
    11:00 +20°C° 0 mm 2 m/s 749 mmHg 62%
    12:00 +23°C° 0 mm 2 m/s 749 mmHg 57%
    13:00 +23°C° 0 mm 2 m/s 749 mmHg 56%
    14:00 +24°C° 0 mm 2 m/s 749 mmHg 54%
    15:00 +25°C° 0 mm 1 m/s 749 mmHg 51%
    16:00 +24°C° 0 mm 1 m/s 749 mmHg 56%
    17:00 +22°C° 0 mm 1 m/s 749 mmHg 61%
    18:00 +21°C° 0 mm 1 m/s 749 mmHg 67%
    19:00 +20°C° 0 mm 1 m/s 750 mmHg 69%
    20:00 +20°C° 0 mm 1 m/s 750 mmHg 72%
    21:00 +19°C° 0 mm 1 m/s 750 mmHg 74%
    22:00 +18°C° 0 mm 1 m/s 750 mmHg 76%
    23:00 +17°C° 0 mm 2 m/s 750 mmHg 77%

    Demain, 22 Septembre, Samedi

    Heure Température Précipitation Vent Pression Humidité
    00:00 +17°C° 0 mm 2 m/s 750 mmHg 79%
    01:00 +16°C° 0 mm 2 m/s 750 mmHg 81%
    02:00 +16°C° 0 mm 2 m/s 750 mmHg 82%
    03:00 +16°C° 0 mm 2 m/s 750 mmHg 84%
    04:00 +15°C° 0 mm 2 m/s 750 mmHg 85%
    05:00 +15°C° 0 mm 2 m/s 750 mmHg 86%
    06:00 +15°C° 0 mm 2 m/s 750 mmHg 87%
    07:00 +16°C° 0 mm 3 m/s 750 mmHg 81%
    08:00 +18°C° 0 mm 3 m/s 750 mmHg 74%
    09:00 +19°C° 0 mm 3 m/s 750 mmHg 68%
    10:00 +21°C° 0 mm 4 m/s 750 mmHg 63%
    11:00 +22°C° 0 mm 4 m/s 750 mmHg 58%
    12:00 +25°C° 0 mm 4 m/s 750 mmHg 53%
    13:00 +25°C° 0 mm 4 m/s 749 mmHg 52%
    14:00 +25°C° 0 mm 4 m/s 749 mmHg 51%
    15:00 +26°C° 0 mm 4 m/s 749 mmHg 50%
    16:00 +23°C° 0 mm 4 m/s 749 mmHg 55%
    17:00 +22°C° 0 mm 3 m/s 748 mmHg 60%
    18:00 +21°C° 0 mm 3 m/s 748 mmHg 66%
    19:00 +20°C° 0 mm 3 m/s 748 mmHg 67%
    20:00 +19°C° 0 mm 3 m/s 748 mmHg 68%
    21:00 +18°C° 0 mm 3 m/s 748 mmHg 69%
    22:00 +18°C° 0 mm 4 m/s 748 mmHg 70%
    23:00 +17°C° 0 mm 4 m/s 747 mmHg 70%

    Après-demain, 23 Septembre, Dimanche

    Heure Température Précipitation Vent Pression Humidité
    00:00 +17°C° 0 mm 4 m/s 747 mmHg 71%
    01:00 +17°C° 0 mm 4 m/s 747 mmHg 71%
    02:00 +17°C° 0 mm 4 m/s 746 mmHg 71%
    03:00 +15°C° 0 mm 4 m/s 746 mmHg 72%
    04:00 +15°C° 0 mm 4 m/s 745 mmHg 72%
    05:00 +15°C° 0 mm 5 m/s 745 mmHg 72%
    06:00 +15°C° 0 mm 5 m/s 744 mmHg 72%
    07:00 +16°C° 0 mm 6 m/s 744 mmHg 68%
    08:00 +17°C° 0 mm 6 m/s 743 mmHg 64%
    09:00 +20°C° 0 mm 7 m/s 743 mmHg 60%
    10:00 +21°C° 0 mm 7 m/s 743 mmHg 56%
    11:00 +22°C° 0 mm 8 m/s 742 mmHg 51%
    12:00 +24°C° 0 mm 8 m/s 742 mmHg 47%
    13:00 +23°C° 0 mm 8 m/s 742 mmHg 49%
    14:00 +23°C° 0 mm 7 m/s 742 mmHg 51%
    15:00 +22°C° 0 mm 6 m/s 741 mmHg 53%
    16:00 +19°C° 0.6 mm 6 m/s 742 mmHg 63%
    17:00 +15°C° 0.6 mm 6 m/s 742 mmHg 72%
    18:00 +13°C° 0.6 mm 6 m/s 742 mmHg 82%
    19:00 +12°C° 0.5 mm 5 m/s 742 mmHg 83%
    20:00 +10°C° 0.5 mm 5 m/s 742 mmHg 84%
    21:00 +9°C° 0.5 mm 5 m/s 743 mmHg 85%
    22:00 +10°C° 1.7 mm 4 m/s 743 mmHg 86%
    23:00 +10°C° 1.7 mm 3 m/s 743 mmHg 88%

    24 Septembre, Lundi

    Heure Température Précipitation Vent Pression Humidité
    00:00 +10°C° 1.7 mm 3 m/s 743 mmHg 90%
    01:00 +10°C° 0.3 mm 3 m/s 743 mmHg 90%
    02:00 +10°C° 0.3 mm 3 m/s 743 mmHg 90%
    03:00 +10°C° 0.3 mm 3 m/s 743 mmHg 90%
    04:00 +9°C° 0 mm 3 m/s 743 mmHg 92%
    05:00 +9°C° 0 mm 2 m/s 743 mmHg 93%
    06:00 +8°C° 0 mm 2 m/s 744 mmHg 95%
    07:00 +9°C° 0 mm 2 m/s 744 mmHg 89%
    08:00 +10°C° 0 mm 2 m/s 744 mmHg 84%
    09:00 +12°C° 0 mm 2 m/s 744 mmHg 79%
    10:00 +13°C° 0 mm 3 m/s 744 mmHg 71%
    11:00 +14°C° 0 mm 3 m/s 744 mmHg 64%
    12:00 +16°C° 0 mm 3 m/s 744 mmHg 56%
    13:00 +17°C° 0 mm 3 m/s 744 mmHg 54%
    14:00 +17°C° 0 mm 3 m/s 743 mmHg 51%
    15:00 +17°C° 0 mm 3 m/s 743 mmHg 49%
    16:00 +16°C° 0 mm 3 m/s 742 mmHg 53%
    17:00 +14°C° 0 mm 3 m/s 742 mmHg 57%
    18:00 +13°C° 0 mm 3 m/s 741 mmHg 62%
    19:00 +13°C° 0.2 mm 4 m/s 740 mmHg 62%
    20:00 +13°C° 0.2 mm 5 m/s 740 mmHg 63%
    21:00 +13°C° 0.2 mm 6 m/s 739 mmHg 63%
    22:00 +11°C° 1.5 mm 7 m/s 738 mmHg 69%
    23:00 +11°C° 1.5 mm 8 m/s 737 mmHg 75%

    25 Septembre, Mardi

    Heure Température Précipitation Vent Pression Humidité
    00:00 +10°C° 1.5 mm 9 m/s 736 mmHg 81%
    01:00 +10°C° 0.3 mm 9 m/s 735 mmHg 81%
    02:00 +10°C° 0.3 mm 9 m/s 735 mmHg 81%
    03:00 +10°C° 0.3 mm 9 m/s 734 mmHg 81%
    04:00 +10°C° 0.1 mm 9 m/s 733 mmHg 80%
    05:00 +9°C° 0.1 mm 8 m/s 733 mmHg 79%
    06:00 +8°C° 0.1 mm 7 m/s 733 mmHg 78%
    07:00 +7°C° 0 mm 8 m/s 733 mmHg 76%
    08:00 +8°C° 0 mm 9 m/s 732 mmHg 73%
    09:00 +8°C° 0 mm 10 m/s 732 mmHg 71%
    10:00 +8°C° 0 mm 10 m/s 732 mmHg 70%
    11:00 +8°C° 0 mm 10 m/s 732 mmHg 69%
    12:00 +8°C° 0 mm 11 m/s 731 mmHg 67%
    13:00 +8°C° 0.1 mm 10 m/s 732 mmHg 69%
    14:00 +8°C° 0.1 mm 10 m/s 732 mmHg 70%
    15:00 +8°C° 0.1 mm 10 m/s 732 mmHg 72%
    16:00 +7°C° 0.2 mm 9 m/s 732 mmHg 74%
    17:00 +7°C° 0.2 mm 9 m/s 732 mmHg 76%
    18:00 +7°C° 0.2 mm 9 m/s 733 mmHg 79%
    19:00 +6°C° 0.1 mm 8 m/s 734 mmHg 78%
    20:00 +6°C° 0.1 mm 8 m/s 734 mmHg 78%
    21:00 +6°C° 0.1 mm 8 m/s 735 mmHg 77%
    22:00 +5°C° 0.1 mm 8 m/s 736 mmHg 76%
    23:00 +5°C° 0.1 mm 8 m/s 737 mmHg 76%

    26 Septembre, Mercredi

    Heure Température Précipitation Vent Pression Humidité
    00:00 +5°C° 0.1 mm 8 m/s 738 mmHg 75%
    01:00 +5°C° 0 mm 7 m/s 738 mmHg 74%
    02:00 +5°C° 0 mm 7 m/s 739 mmHg 72%
    03:00 +4°C° 0 mm 7 m/s 740 mmHg 71%
    04:00 +4°C° 0 mm 7 m/s 740 mmHg 71%
    05:00 +3°C° 0 mm 6 m/s 741 mmHg 72%
    06:00 +2°C° 0 mm 6 m/s 742 mmHg 73%
    07:00 +3°C° 0 mm 6 m/s 742 mmHg 70%
    08:00 +3°C° 0 mm 6 m/s 743 mmHg 66%
    09:00 +4°C° 0 mm 7 m/s 743 mmHg 63%
    10:00 +5°C° 0 mm 7 m/s 744 mmHg 57%
    11:00 +6°C° 0 mm 7 m/s 744 mmHg 51%
    12:00 +8°C° 0 mm 7 m/s 745 mmHg 46%
    13:00 +9°C° 0 mm 7 m/s 745 mmHg 45%
    14:00 +9°C° 0 mm 7 m/s 745 mmHg 45%
    15:00 +10°C° 0 mm 7 m/s 746 mmHg 44%
    16:00 +9°C° 0.1 mm 6 m/s 746 mmHg 51%
    17:00 +8°C° 0.1 mm 5 m/s 747 mmHg 57%
    18:00 +7°C° 0.1 mm 4 m/s 747 mmHg 64%
    19:00 +6°C° 0 mm 4 m/s 748 mmHg 69%
    20:00 +5°C° 0 mm 4 m/s 748 mmHg 73%
    21:00 +5°C° 0 mm 4 m/s 749 mmHg 78%
    22:00 +4°C° 0 mm 3 m/s 749 mmHg 81%
    23:00 +4°C° 0 mm 3 m/s 749 mmHg 84%
    Voir plus